Flag for Romania Weather past 2 weeks in Constanța, Romania

Now
62 °F

Scattered clouds.


Feels Like: 62 °F
Forecast: 58 / 75 °F
Wind: 6 mph from North

Location: Constanta

Current Time: May 29, 2015 at 11:33:02 AM

Latest Report: May 29, 2015 at 10:00 AM


Visibility: 6 mi

Pressure: 29.88 "Hg

Humidity: 54%

Dew point: 46 °F

Location of ConstanțaLocation

Historic Weather in Constanța — Graph

°F

Constanța temperature yesterday

Maximum temperature yesterday: 69 °F (at 4:00 PM)
Minimum temperature yesterday: 54 °F (at 7:00 AM)
Average temperature yesterday: 63 °F

Past Weeks' High & Low Weather Summary

 TemperatureHumidityPressure
High80 °F (May 26, 4:00 PM)98% (May 18, 11:00 PM)30.14 "Hg (May 18, 11:00 PM)
Low52 °F (May 29, 6:00 AM)37% (May 26, 3:00 PM)29.68 "Hg (May 27, 6:00 PM)
Average65 °F75%29.90 "Hg
* Reported May 14 10:00 AM — May 29 10:00 AM, Constanța, Weather by CustomWeather, © 2015

Note: Actual official high and low records may vary slightly from our data, if they occured in-between our weather recording intervals... More about our weather records

Advertising

Constanța weather history for previous 24 hours

 ConditionsComfort  
Time TempWeatherWind HumidityBarometerVisibility
10:00 AM
Fri, May 29
62 °FScattered clouds.6 mph54%29.88 "Hg6 mi
9:00 AM60 °FScattered clouds.6 mph57%29.88 "Hg6 mi
8:00 AM57 °FScattered clouds.2 mph65%29.87 "Hg6 mi
7:00 AM52 °FScattered clouds.3 mph74%29.86 "Hg6 mi
6:00 AM52 °FScattered clouds.2 mph75%29.86 "Hg6 mi
5:00 AM53 °FClear.3 mph71%29.85 "Hg6 mi
4:00 AM54 °FClear.2 mph68%29.86 "Hg6 mi
3:00 AM56 °FClear.3 mph66%29.86 "Hg6 mi
11:00 PM
Thu, May 28
60 °FPassing clouds.3 mph61%29.87 "Hg6 mi
10:00 PM62 °FPassing clouds.3 mph60%29.85 "Hg6 mi
9:00 PM64 °FPassing clouds.5 mph51%29.83 "Hg6 mi
8:00 PM66 °FPartly sunny.5 mph49%29.82 "Hg6 mi
7:00 PM68 °FScattered clouds.6 mph46%29.81 "Hg6 mi
6:00 PM69 °FPartly sunny.6 mph44%29.82 "Hg6 mi
5:00 PM69 °FPartly sunny.7 mph45%29.81 "Hg6 mi
4:00 PM69 °FPartly sunny.5 mph46%29.80 "Hg6 mi
3:00 PM69 °FScattered clouds.6 mph49%29.80 "Hg6 mi
2:00 PM68 °FScattered clouds.6 mph51%29.80 "Hg6 mi
1:00 PM67 °FScattered clouds.6 mph56%29.80 "Hg6 mi
12:00 PM63 °FScattered clouds.6 mph58%29.81 "Hg6 mi
11:00 AM63 °FPartly sunny.3 mph59%29.82 "Hg6 mi
Weather by CustomWeather, © 2015

See weather overviewHow to use our weather pages